Probability
0 0 0 0 0 0 0 0 0 0 0 0 0 0 0 0 0 0 0 0 0 0 0 0 0 0 0 0 0 0 0 0 0 0 0 0 0 0 0 0 0 0 0
0 0 0 0 0 0 0 0 0 0 0 0 0 0 0 0 0 0 0 0 0 0 0 0 0 0 0 0 0 0 0 0 0 0 0 0 0 0 0 0 0 0 0
0 0 0 0 0 0 0 0 0 0 0 0 0 0 0 0 0 0 0 0 0 0 0 0 0 0 0 0 0 0 0 0 0 0 0 0 0 0 0 0 0 0 0
0 0 0 0 0 0 0 0 0 0 0 0 0 0 0 0 0 0 0 0 0 0 0 0 0 0 0 0 0 0 0 0 0 0 0 0 0 0 0 0 0 0 0
0 0 0 0 0 0 0 0 0 0 0 0 0 0 0 0 0 0 0 0 0 0 0 0 0 0 0 0 0 0 0 0 0 0 0 0 0 0 0 0 0 0 0
0 0 0 0 0 0 0 0 0 0 0 0 0 0 0 0 0 0 0 0 0 0 0 0 0 0 0 0 0 0 0 0 0 0 0 0 0 0 0 0 0 0 0
0 0 0 0 0 0 0 0 0 0 0 0 0 0 0 0 0 0 0 0 0 0 0 0 0 0 0 0 0 0 0 0 0 0 0 0 0 0 0 0 0 0 0
0 0 0 0 0 0 0 0 0 0 0 0 0 0 0 0 0 0 0 0 0 0 0 0 0 0 0 0 0 0 0 0 0 0 0 0 0 0 0 0 0 0 0
0 0 0 0 0 0 0 0 0 0 0 0 0 0 0 0 0 0 0 0 0 0 0 0 0 0 0 0 0 0 0 0 0 0 0 0 0 0 0 0 0 0 0
0 0 0 0 0 0 0 0 0 0 0 0 0 0 0 0 0 0 0 0 0 0 0 0 0 0 0 0 0 0 0 0 0 0 0 0 0 0 0 0 0 0 0
0 0 0 0 0 0 0 0 0 0 0 0 0 0 0 0 0 0 0 0 0 0 0 0 0 0 0 0 0 0 0 0 0 0 0 0 0 0 0 0 0 0 0
0 0 0 0 0 0 0 0 0 0 0 0 0 0 0 0 0 0 0 0 0 0 0 0 0 0 0 0 0 0 0 0 0 0 0 0 0 0 0 0 0 0 0
0 0 0 0 0 0 0 0 0 0 0 0 0 0 0 0 0 0 0 0 0 0 0 0 0 0 0 0 0 0 0 0 0 0 0 0 0 0 0 0 0 0 0
0 0 0 0 0 0 0 0 0 0 0 0 0 0 0 0 0 0 0 0 0 0 0 0 0 0 0 0 0 0 0 0 0 0 0 0 0 0 0 0 0 0 0
0 0 0 0 0 0 0 0 0 0 0 0 0 0 0 0 0 0 0 0 0 0 0 0 0 0 0 0 0 0 0 0 0 0 0 0 0 0 0 0 0 0 0
0 0 0 0 0 1 1 1 1 1 0 0 0 0 0 0 0 0 0 0 0 0 0 0 0 0 0 0 0 0 0 0 0 0 0 0 0 0 0 0 0 0 0
0 0 0 0 1 2 2 2 2 2 1 0 0 0 0 0 0 0 0 0 0 0 0 0 0 0 0 0 0 0 0 0 0 0 0 0 0 0 0 0 0 0 0
0 0 0 0 1 2 3 3 3 3 2 1 0 0 0 0 0 0 0 0 0 0 0 0 0 0 0 0 0 0 0 0 0 0 0 0 0 0 0 0 0 0 0
0 0 0 0 1 2 3 3 3 3 3 2 1 0 0 0 0 0 0 0 0 0 0 0 0 0 0 0 0 0 0 0 0 0 0 0 0 0 0 0 0 0 0
0 0 0 0 1 2 3 3 3 3 3 3 2 1 1 0 0 0 0 0 0 0 0 0 0 0 0 0 0 0 0 0 0 0 0 0 0 0 0 0 0 0 0
0 0 0 0 0 1 3 3 3 3 3 3 3 3 2 1 0 0 0 0 0 0 0 0 0 0 0 0 0 0 0 0 0 0 0 0 0 0 0 0 0 0 0
0 0 0 0 0 1 2 3 3 3 3 3 3 3 3 1 0 0 0 0 0 0 0 0 0 0 0 0 0 0 0 0 0 0 0 0 0 0 0 0 0 0 0
0 0 0 0 0 1 2 3 3 3 3 3 3 3 3 2 1 0 0 0 0 0 0 0 0 0 0 0 0 0 0 0 0 0 0 0 0 0 0 0 0 0 0
0 0 0 0 0 0 1 2 3 3 3 3 3 3 3 3 2 1 0 0 0 0 0 0 0 0 0 0 0 0 0 0 0 0 0 0 0 0 0 0 0 0 0
0 0 0 0 0 0 0 1 2 2 3 3 3 3 3 3 3 2 1 0 0 0 0 0 0 0 0 0 0 0 0 0 0 0 0 0 0 0 0 0 0 0 0
0 0 0 0 0 0 0 0 1 1 2 3 3 3 3 3 3 2 1 0 0 0 0 0 0 0 0 0 0 0 0 0 0 0 0 0 0 0 0 0 0 0 0
Wind_Speed
4 5 10 11 13 13 13 13 13 13 13 13 13 13 14 14 14 15 15 15 15 15 16 16 16 16 15 15 15 15 15 15 15 14 15 15 15 14 14 14 13 9 15
8 7 10 11 13 13 13 13 13 13 13 13 13 13 13 14 14 14 14 14 14 14 15 15 14 14 14 13 13 13 13 12 12 12 12 12 13 14 14 14 13 9 15
10 8 9 11 13 13 13 13 13 13 13 13 12 13 13 13 13 14 13 13 13 13 13 13 13 13 12 12 12 11 11 10 10 10 10 5 7 13 14 13 13 13 13
11 9 9 11 13 13 13 13 12 12 12 12 12 12 12 12 13 13 13 12 12 12 12 12 12 11 11 10 10 10 10 10 10 9 5 4 4 11 12 12 12 12 12
9 8 9 11 13 13 13 13 13 12 12 12 12 11 12 12 12 12 12 12 11 11 11 11 11 10 9 9 9 10 10 10 10 7 4 4 4 9 11 11 11 10 10
9 8 9 12 13 13 13 13 13 12 12 11 11 11 11 11 11 11 11 11 11 10 10 10 9 8 7 7 8 9 9 9 8 4 4 3 3 8 9 9 9 9 9
8 7 9 11 11 12 12 13 12 12 12 11 11 10 10 10 11 11 10 10 10 9 9 9 8 7 6 6 7 8 9 8 5 4 3 3 3 7 8 8 8 8 8
10 8 8 11 11 11 11 11 11 11 11 11 10 10 10 10 10 10 10 10 9 9 8 8 6 5 4 4 5 6 7 6 5 3 2 2 3 5 6 6 6 6 6
9 8 7 7 8 10 10 10 10 10 10 10 10 9 8 7 8 8 8 9 9 8 8 7 5 4 3 2 3 5 5 5 3 1 2 1 2 4 4 5 5 5 5
8 8 7 6 6 6 7 10 10 10 9 9 9 8 8 7 7 7 6 7 8 8 7 6 5 4 2 0 2 4 4 3 2 2 1 1 2 3 4 4 4 3 3
7 7 7 7 6 6 6 8 9 10 10 9 8 9 7 4 4 4 5 6 6 7 7 7 6 4 2 2 3 3 2 0 1 1 1 2 3 3 4 3 3 3 3
10 8 7 8 8 7 6 5 5 5 6 6 5 6 4 4 4 4 6 7 7 7 7 7 6 4 2 2 3 3 1 1 1 2 2 5 5 5 5 4 4 4 4
9 9 8 9 8 8 5 5 4 3 4 5 6 6 4 4 3 3 2 3 4 5 4 4 4 2 2 2 2 2 2 2 2 2 3 6 6 6 6 6 6 6 6
8 9 9 9 8 9 7 6 6 5 4 4 6 7 5 3 4 4 3 4 3 3 3 3 3 4 4 5 5 4 4 3 3 2 4 7 8 8 8 8 8 8 8
9 10 10 9 10 9 8 6 7 6 6 6 6 6 6 5 5 5 4 4 4 4 4 4 4 5 5 5 5 5 5 5 4 4 3 8 9 10 11 11 10 10 10
12 11 10 10 10 9 8 7 7 7 6 6 6 8 9 6 6 6 5 5 5 5 5 5 5 5 5 4 5 6 5 5 5 5 5 6 10 12 13 13 13 13 12
12 11 11 11 10 10 10 9 7 7 7 7 7 8 9 8 7 7 6 6 6 6 6 5 5 4 4 5 6 6 5 6 6 6 6 5 5 10 13 15 15 15 15
11 11 12 10 10 11 10 8 6 6 7 7 6 7 10 10 9 7 6 6 6 5 5 5 5 4 5 5 4 5 5 5 7 7 6 6 5 5 9 15 16 17 16
13 12 12 12 12 12 10 8 7 6 7 6 6 7 8 10 10 8 7 6 6 6 6 6 5 4 5 5 5 5 5 5 6 7 8 8 7 7 6 10 14 15 17
12 12 12 12 12 10 8 6 5 6 7 6 7 8 9 9 10 9 7 7 7 6 6 6 6 5 4 4 4 5 6 6 6 7 9 8 7 9 8 8 7 9 16
9 11 12 13 12 9 7 7 8 9 7 6 7 8 10 10 10 10 8 7 8 8 9 8 6 6 6 3 2 4 5 7 9 9 8 7 8 8 8 9 7 6 7
11 12 12 13 12 12 10 8 5 5 5 6 6 8 10 10 11 10 10 8 8 8 8 9 8 5 4 5 4 2 4 5 5 8 7 8 9 6 8 9 8 8 7
11 12 12 13 13 12 11 5 3 3 3 5 7 9 10 11 11 11 11 10 9 9 9 10 10 10 8 6 6 5 4 6 4 3 5 6 7 6 7 6 8 8 8
12 11 12 12 11 10 10 9 11 10 11 11 8 7 8 10 11 12 11 11 10 10 11 10 10 9 9 8 6 7 6 4 3 4 3 3 5 6 7 6 6 7 8
9 8 9 9 9 9 10 11 11 11 11 6 6 7 8 8 11 12 12 11 11 11 11 10 10 11 10 10 8 5 8 7 7 6 7 4 3 4 5 6 6 6 7
4 5 5 6 7 8 9 10 12 13 11 8 8 9 8 7 8 11 12 12 12 11 12 12 11 12 11 11 10 8 7 6 7 8 10 8 6 4 5 6 6 7 7
Wind_Direction
148 156 143 138 133 128 123 118 113 111 109 108 105 103 101 99 97 95 94 93 92 90 88 87 85 85 84 83 82 79 76 72 68 68 71 74 74 74 72 69 64 59 67
149 151 142 139 135 131 127 122 119 116 114 113 111 110 107 104 102 99 96 95 95 94 92 91 90 89 88 86 84 80 74 71 68 67 69 69 74 74 73 70 70 70 70
140 143 140 138 136 134 132 129 126 123 120 118 117 115 113 111 108 105 103 101 100 99 99 97 95 93 91 87 80 73 65 69 74 74 70 53 69 76 74 70 69 70 70
140 143 142 138 139 139 138 135 132 128 125 124 123 121 118 116 114 113 111 109 108 106 104 102 99 97 93 85 74 64 60 70 81 80 64 50 62 77 75 73 72 72 71
138 140 143 143 145 144 143 141 137 135 133 131 129 127 125 122 120 118 117 117 114 111 109 106 103 100 94 82 68 57 60 78 87 79 67 58 59 80 78 78 78 74 73
139 142 148 147 149 149 149 147 144 142 141 138 136 134 131 128 127 126 123 122 119 117 115 112 108 104 93 76 62 56 63 81 86 76 68 62 65 83 84 86 85 83 81
142 146 153 151 153 154 154 153 151 149 147 145 144 141 137 136 133 132 130 127 124 122 121 119 115 108 92 70 57 54 58 72 85 80 72 62 80 90 92 93 91 87 88
148 151 154 155 156 158 159 157 157 155 153 152 151 148 146 145 143 140 140 137 135 132 131 128 126 118 101 68 50 46 50 63 85 90 81 68 97 101 100 102 97 92 95
150 152 154 158 161 164 164 161 159 158 157 156 156 153 149 148 147 143 144 147 147 145 142 140 138 135 121 67 39 33 39 64 93 117 112 92 115 116 115 116 112 107 103
155 160 162 164 162 164 166 167 164 161 159 157 154 150 148 147 144 143 148 155 158 156 156 156 156 162 173 322 357 11 28 63 90 126 138 190 155 152 144 138 135 132 123
168 172 170 170 170 168 169 173 169 166 165 160 158 159 155 150 149 151 163 168 167 163 168 174 180 189 211 278 306 330 5 64 154 181 198 208 193 185 172 170 171 170 166
183 184 180 179 178 175 178 170 171 171 170 168 167 169 167 167 174 174 182 182 175 171 179 189 196 202 220 277 298 312 305 243 199 211 223 214 209 208 204 204 203 204 202
186 187 188 186 184 181 179 173 178 174 174 179 179 180 177 175 180 181 177 184 180 178 183 198 204 212 228 242 258 264 253 233 215 223 228 221 220 222 220 219 217 219 219
191 195 191 188 186 187 183 182 183 182 184 188 192 188 181 181 185 185 186 187 185 183 190 201 210 223 235 243 244 246 241 225 218 221 230 228 228 232 234 233 231 228 228
201 201 196 190 189 187 184 188 189 191 192 193 194 196 190 188 190 189 193 193 196 193 195 205 218 228 235 240 236 230 231 226 222 220 231 230 230 235 241 243 241 238 234
209 207 200 196 192 187 189 191 192 194 195 194 197 199 196 195 193 191 195 198 202 202 202 205 213 221 229 230 235 232 230 227 228 226 227 233 235 237 243 247 247 246 242
209 205 204 202 195 192 194 196 194 195 194 199 201 201 200 199 196 194 197 202 205 203 204 210 218 221 228 231 236 237 235 233 232 233 230 228 234 239 241 246 249 249 249
206 204 205 202 199 199 198 197 197 196 198 203 201 201 204 203 199 197 201 207 202 198 201 207 210 216 226 229 235 240 239 239 240 238 235 231 228 234 239 243 247 249 250
207 205 203 201 201 202 201 199 199 199 204 204 203 206 207 207 203 202 208 208 198 202 206 211 210 206 219 228 235 242 242 242 243 242 240 236 231 230 230 240 241 244 248
209 205 204 202 203 199 197 198 202 211 213 209 209 210 207 208 206 207 212 208 200 206 213 213 215 213 216 219 238 251 248 245 243 241 242 240 235 232 229 232 236 240 242
208 205 205 204 203 193 193 199 206 217 216 215 216 213 211 210 207 209 214 210 208 214 217 212 211 219 225 198 231 275 270 249 244 242 238 238 239 234 230 231 230 230 239
210 208 206 207 203 200 204 202 200 200 211 216 217 220 218 215 212 214 217 216 212 218 219 214 208 215 217 185 189 228 292 298 261 242 235 235 240 235 235 235 232 230 230
214 211 209 209 207 205 202 187 181 186 211 215 220 223 221 219 217 218 219 219 216 217 224 220 213 216 224 209 196 189 217 249 294 280 243 237 237 235 240 239 236 235 233
219 214 212 210 208 204 195 194 196 206 218 222 221 223 219 216 219 219 221 220 221 222 227 223 217 219 220 224 213 218 221 206 237 295 288 258 241 237 240 241 241 240 236
219 212 212 209 208 202 197 201 205 218 227 227 217 222 223 220 221 222 221 221 224 226 228 225 219 219 220 226 219 210 226 234 231 249 275 277 269 246 239 238 239 240 238
213 205 204 204 211 204 201 204 209 219 224 224 223 225 226 226 225 223 222 224 226 226 227 227 224 222 225 227 227 220 212 219 219 227 250 262 261 250 236 236 237 239 239